User: anonymous
Location: Vancouver
(49.2500°N, 123.1330°W)
Time: 14:30:49
(UTC-07:00)
Language:

ISS - Orbit

View from above orbital plane
View from above orbital plane
View from above satellite
View from above satellite

Ground track
Ground track

The orbit data is extracted from the following two-line orbital elements,

1 25544U 98067A   14114.66215197  .00049540  00000-0  85776-3 0  1505
2 25544 051.6494 004.8532 0004210 338.6742 075.2770 15.50413498883022
Epoch (UTC): 24 April 2014 15:53:29
Eccentricity: 0.0004210
inclination: 51.6494°
perigee height: 412 km
apogee height: 418 km
right ascension of ascending node: 4.8532°
argument of perigee: 338.6742°
revolutions per day: 15.50413498
mean anomaly at epoch: 75.2770°
orbit number at epoch: 88302

The dashed part of the orbit path shows where the satellite is in the earth's shadow,  

DLR